ASA229 PANC-PAFA

Flight info

Callsign ASA229
Flight time 0h 42m
Altitude 30000
Route CAWIN LIBER5
Aircraft B737/M-SDE2E3FGHIRWXY/LB1

Departure

Time 2026-04-25 03:37
Airport Ted Stevens Anchorage International Airport (PANC)

Arrival

Time 2026-04-25 04:19
Airport Fairbanks International Airport (PAFA)
Time Latitude Longitude Altitude Speed Heading
2026-04-25 03:07 61.17504 -149.98451 164 ft 0 kts 82°
2026-04-25 03:27 61.17503 -149.98459 164 ft 2 kts 82°
2026-04-25 03:27 61.17501 -149.98489 164 ft 2 kts 82°
2026-04-25 03:28 61.17499 -149.98520 164 ft 2 kts 81°
2026-04-25 03:28 61.17497 -149.98552 164 ft 2 kts 82°
2026-04-25 03:28 61.17498 -149.98583 164 ft 2 kts 111°
2026-04-25 03:28 61.17506 -149.98608 164 ft 2 kts 135°
2026-04-25 03:29 61.17518 -149.98627 164 ft 2 kts 158°
2026-04-25 03:29 61.17532 -149.98636 164 ft 2 kts 160°
2026-04-25 03:29 61.17546 -149.98647 164 ft 2 kts 160°
2026-04-25 03:29 61.17555 -149.98653 164 ft 0 kts 160°
2026-04-25 03:31 61.17552 -149.98651 164 ft 0 kts 160°
2026-04-25 03:32 61.17540 -149.98642 164 ft 6 kts 160°
2026-04-25 03:32 61.17477 -149.98595 164 ft 10 kts 160°
2026-04-25 03:33 61.17412 -149.98579 164 ft 9 kts 197°
2026-04-25 03:33 61.17355 -149.98647 164 ft 9 kts 214°
2026-04-25 03:33 61.17307 -149.98715 164 ft 7 kts 214°
2026-04-25 03:33 61.17264 -149.98773 164 ft 7 kts 212°
2026-04-25 03:34 61.17214 -149.98850 164 ft 13 kts 224°
2026-04-25 03:34 61.17152 -149.98999 164 ft 13 kts 232°
2026-04-25 03:34 61.17125 -149.99178 164 ft 13 kts 270°
2026-04-25 03:34 61.17126 -149.99362 164 ft 12 kts 268°
2026-04-25 03:35 61.17124 -149.99532 164 ft 10 kts 269°
2026-04-25 03:35 61.17124 -149.99651 164 ft 5 kts 270°
2026-04-25 03:35 61.17124 -149.99730 164 ft 5 kts 270°
2026-04-25 03:35 61.17128 -149.99829 164 ft 7 kts 290°
2026-04-25 03:36 61.17171 -149.99890 164 ft 7 kts 346°
2026-04-25 03:36 61.17218 -149.99913 164 ft 7 kts 346°
2026-04-25 03:36 61.17419 -150.00024 164 ft 64 kts 342°
2026-04-25 03:36 61.18071 -150.00397 164 ft 127 kts 345°
2026-04-25 03:37 61.19093 -150.00951 280 ft 167 kts 345°
2026-04-25 03:37 61.20196 -150.01575 958 ft 170 kts 342°
2026-04-25 03:37 61.21351 -150.02313 1541 ft 181 kts 340°
2026-04-25 03:37 61.22553 -150.03239 2143 ft 188 kts 333°
2026-04-25 03:38 61.23687 -150.04753 2622 ft 201 kts 323°
2026-04-25 03:38 61.24763 -150.06665 3225 ft 208 kts 315°
2026-04-25 03:38 61.25774 -150.08832 3883 ft 212 kts 314°
2026-04-25 03:38 61.26761 -150.11032 4716 ft 207 kts 313°
2026-04-25 03:39 61.27722 -150.13205 5392 ft 208 kts 311°
2026-04-25 03:39 61.28714 -150.15561 5774 ft 225 kts 313°
2026-04-25 03:39 61.29838 -150.18007 6145 ft 242 kts 315°
2026-04-25 03:39 61.31191 -150.20204 6510 ft 258 kts 337°
2026-04-25 03:40 61.32995 -150.20702 6937 ft 271 kts
2026-04-25 03:40 61.34845 -150.19588 7590 ft 276 kts 21°
2026-04-25 03:40 61.36630 -150.18198 8303 ft 280 kts 21°
2026-04-25 03:40 61.38501 -150.16866 9009 ft 284 kts 18°
2026-04-25 03:41 61.40387 -150.15700 9716 ft 288 kts 16°
2026-04-25 03:41 61.42357 -150.14583 10351 ft 296 kts 17°
2026-04-25 03:41 61.44376 -150.13464 10746 ft 312 kts 16°
2026-04-25 03:41 61.46527 -150.12230 11135 ft 328 kts 17°
2026-04-25 03:42 61.48763 -150.10908 11492 ft 345 kts 17°
2026-04-25 03:42 61.51160 -150.09486 11774 ft 364 kts 17°
2026-04-25 03:42 61.53643 -150.08011 12295 ft 374 kts 17°
2026-04-25 03:42 61.56132 -150.06531 12918 ft 382 kts 17°
2026-04-25 03:43 61.58735 -150.04990 13614 ft 388 kts 18°
2026-04-25 03:43 61.61321 -150.03456 14292 ft 394 kts 18°
2026-04-25 03:43 61.63991 -150.01871 14976 ft 400 kts 18°
2026-04-25 03:43 61.66718 -150.00250 15655 ft 406 kts 18°
2026-04-25 03:44 61.69427 -149.98637 16330 ft 412 kts 18°
2026-04-25 03:44 61.72227 -149.96971 17024 ft 417 kts 18°
2026-04-25 03:44 61.75029 -149.95300 17691 ft 422 kts 17°
2026-04-25 03:44 61.77869 -149.93604 18347 ft 426 kts 17°
2026-04-25 03:45 61.80722 -149.91895 18967 ft 431 kts 17°
2026-04-25 03:45 61.83626 -149.90152 19578 ft 436 kts 17°
2026-04-25 03:45 61.86576 -149.88374 20181 ft 441 kts 17°
2026-04-25 03:45 61.89514 -149.86603 20775 ft 446 kts 17°
2026-04-25 03:46 61.92535 -149.84778 21328 ft 452 kts 17°
2026-04-25 03:46 61.95562 -149.82921 21874 ft 457 kts 17°
2026-04-25 03:46 61.98620 -149.81056 22523 ft 458 kts 17°
2026-04-25 03:46 62.01721 -149.79172 23118 ft 461 kts 17°
2026-04-25 03:47 62.04800 -149.77306 23682 ft 464 kts 17°
2026-04-25 03:47 62.07917 -149.75423 24234 ft 466 kts 17°
2026-04-25 03:47 62.11047 -149.73526 24761 ft 469 kts 17°
2026-04-25 03:47 62.14228 -149.71580 25271 ft 472 kts 18°
2026-04-25 03:48 62.17355 -149.69653 25812 ft 474 kts 18°
2026-04-25 03:48 62.20528 -149.67682 26378 ft 475 kts 18°
2026-04-25 03:48 62.23697 -149.65730 26924 ft 476 kts 18°
2026-04-25 03:48 62.26901 -149.63751 27473 ft 476 kts 18°
2026-04-25 03:49 62.30059 -149.61795 28009 ft 477 kts 18°
2026-04-25 03:49 62.33276 -149.59798 28544 ft 477 kts 18°
2026-04-25 03:49 62.36454 -149.57819 29061 ft 478 kts 18°
2026-04-25 03:49 62.39634 -149.55837 29451 ft 481 kts 18°
2026-04-25 03:50 62.42843 -149.53827 29560 ft 483 kts 18°
2026-04-25 03:50 62.46058 -149.51813 29703 ft 478 kts 18°
2026-04-25 03:50 62.49296 -149.49782 29868 ft 478 kts 18°
2026-04-25 03:50 62.52470 -149.47784 30030 ft 480 kts 18°
2026-04-25 03:51 62.58896 -149.43724 30084 ft 479 kts 18°
2026-04-25 03:51 62.65276 -149.39674 30092 ft 479 kts 18°
2026-04-25 03:52 62.71767 -149.35536 30065 ft 479 kts 18°
2026-04-25 03:52 62.78203 -149.31416 30019 ft 477 kts 18°
2026-04-25 03:53 62.84571 -149.27322 30003 ft 478 kts 18°
2026-04-25 03:53 62.90950 -149.23201 29994 ft 477 kts 18°
2026-04-25 03:54 62.97355 -149.19045 29978 ft 477 kts 18°
2026-04-25 03:54 63.03733 -149.14885 29934 ft 476 kts 18°
2026-04-25 03:55 63.10030 -149.10762 29960 ft 476 kts 18°
2026-04-25 03:55 63.16458 -149.06531 30010 ft 476 kts 17°
2026-04-25 03:56 63.22754 -149.02370 30071 ft 475 kts 17°
2026-04-25 03:56 63.29086 -148.98172 30076 ft 475 kts 17°
2026-04-25 03:57 63.35455 -148.94176 29868 ft 468 kts 15°
2026-04-25 03:57 63.38575 -148.92285 29497 ft 466 kts 15°
2026-04-25 03:57 63.41708 -148.90398 29028 ft 467 kts 15°
2026-04-25 03:58 63.44843 -148.88504 28481 ft 466 kts 15°
2026-04-25 03:58 63.47955 -148.86615 27974 ft 464 kts 15°
2026-04-25 03:58 63.51079 -148.84711 27483 ft 461 kts 15°
2026-04-25 03:58 63.54160 -148.82820 27011 ft 457 kts 15°
2026-04-25 03:59 63.57195 -148.80951 26514 ft 453 kts 15°
2026-04-25 03:59 63.60244 -148.79063 26035 ft 447 kts 15°
2026-04-25 03:59 63.63233 -148.77208 25568 ft 442 kts 15°
2026-04-25 03:59 63.66160 -148.75385 25110 ft 437 kts 15°
2026-04-25 04:00 63.69086 -148.73558 24663 ft 432 kts 15°
2026-04-25 04:00 63.71977 -148.71748 24209 ft 428 kts 15°
2026-04-25 04:00 63.74832 -148.69957 23760 ft 424 kts 15°
2026-04-25 04:00 63.77656 -148.68181 23310 ft 420 kts 15°
2026-04-25 04:01 63.80467 -148.66409 22878 ft 416 kts 15°
2026-04-25 04:01 63.83266 -148.64641 22424 ft 413 kts 15°
2026-04-25 04:01 63.86004 -148.62909 21980 ft 410 kts 15°
2026-04-25 04:01 63.88768 -148.61156 21519 ft 408 kts 15°
2026-04-25 04:02 63.91463 -148.59444 21074 ft 404 kts 15°
2026-04-25 04:02 63.94158 -148.57733 20628 ft 401 kts 15°
2026-04-25 04:02 63.96832 -148.56035 20179 ft 397 kts 15°
2026-04-25 04:02 63.99488 -148.54343 19735 ft 393 kts 15°
2026-04-25 04:03 64.02120 -148.52663 19301 ft 389 kts 15°
2026-04-25 04:03 64.04691 -148.51016 18872 ft 384 kts 15°
2026-04-25 04:03 64.07240 -148.49379 18441 ft 381 kts 15°
2026-04-25 04:03 64.09790 -148.47737 18012 ft 378 kts 15°
2026-04-25 04:04 64.12333 -148.46094 17584 ft 374 kts 15°
2026-04-25 04:04 64.14833 -148.44473 17127 ft 372 kts 15°
2026-04-25 04:04 64.17322 -148.42857 16701 ft 369 kts 15°
2026-04-25 04:04 64.19774 -148.41263 16278 ft 365 kts 15°
2026-04-25 04:05 64.22200 -148.39682 15862 ft 361 kts 15°
2026-04-25 04:05 64.24590 -148.38129 15446 ft 357 kts 14°
2026-04-25 04:05 64.26999 -148.36552 15023 ft 353 kts 15°
2026-04-25 04:05 64.29342 -148.34998 14611 ft 348 kts 16°
2026-04-25 04:06 64.31661 -148.33464 14211 ft 344 kts 16°
2026-04-25 04:06 64.33930 -148.31812 13790 ft 340 kts 20°
2026-04-25 04:06 64.36108 -148.29639 13379 ft 336 kts 28°
2026-04-25 04:06 64.38106 -148.26921 12988 ft 330 kts 34°
2026-04-25 04:07 64.39992 -148.23978 12592 ft 326 kts 36°
2026-04-25 04:07 64.41843 -148.21002 12192 ft 322 kts 36°
2026-04-25 04:07 64.43663 -148.18103 11813 ft 316 kts 36°
2026-04-25 04:07 64.45473 -148.15269 11430 ft 310 kts 35°
2026-04-25 04:08 64.47256 -148.12506 11060 ft 304 kts 35°
2026-04-25 04:08 64.48982 -148.09831 10695 ft 298 kts 34°
2026-04-25 04:08 64.50693 -148.07165 10332 ft 292 kts 34°
2026-04-25 04:08 64.52389 -148.04546 10031 ft 288 kts 34°
2026-04-25 04:09 64.54012 -148.02037 9888 ft 274 kts 34°
2026-04-25 04:09 64.55598 -147.99576 9605 ft 274 kts 34°
2026-04-25 04:09 64.57184 -147.97096 9251 ft 277 kts 34°
2026-04-25 04:09 64.58755 -147.94649 8938 ft 269 kts 34°
2026-04-25 04:10 64.60333 -147.92189 8624 ft 271 kts 34°
2026-04-25 04:10 64.61903 -147.89731 8307 ft 274 kts 34°
2026-04-25 04:10 64.63480 -147.87264 7990 ft 269 kts 34°
2026-04-25 04:10 64.65018 -147.84845 7678 ft 266 kts 34°
2026-04-25 04:11 64.68061 -147.80052 7053 ft 261 kts 33°
2026-04-25 04:11 64.69563 -147.77689 6749 ft 262 kts 33°
2026-04-25 04:11 64.71094 -147.75279 6454 ft 264 kts 33°
2026-04-25 04:12 64.72578 -147.72939 6319 ft 254 kts 33°
2026-04-25 04:12 64.74025 -147.70654 6251 ft 242 kts 33°
2026-04-25 04:12 64.75377 -147.68517 6182 ft 232 kts 33°
2026-04-25 04:12 64.76717 -147.66362 5996 ft 233 kts 36°
2026-04-25 04:13 64.77989 -147.64046 5725 ft 231 kts 39°
2026-04-25 04:13 64.79227 -147.61675 5572 ft 227 kts 39°
2026-04-25 04:13 64.80459 -147.59345 5408 ft 230 kts 38°
2026-04-25 04:13 64.81705 -147.57027 5168 ft 228 kts 38°
2026-04-25 04:14 64.82948 -147.54730 4944 ft 226 kts 38°
2026-04-25 04:14 64.84216 -147.52631 4760 ft 221 kts 28°
2026-04-25 04:14 64.85677 -147.51527 4378 ft 224 kts
2026-04-25 04:14 64.87197 -147.51737 4112 ft 217 kts 348°
2026-04-25 04:15 64.88621 -147.52724 3806 ft 212 kts 334°
2026-04-25 04:15 64.89801 -147.54683 3542 ft 205 kts 313°
2026-04-25 04:15 64.90665 -147.57286 3289 ft 198 kts 301°
2026-04-25 04:15 64.91223 -147.60147 3058 ft 186 kts 284°
2026-04-25 04:16 64.91379 -147.63130 2824 ft 178 kts 269°
2026-04-25 04:16 64.91264 -147.65979 2651 ft 174 kts 257°
2026-04-25 04:16 64.90803 -147.68594 2418 ft 175 kts 235°
2026-04-25 04:16 64.89987 -147.70679 2217 ft 172 kts 219°
2026-04-25 04:17 64.89056 -147.72427 1998 ft 167 kts 217°
2026-04-25 04:17 64.88191 -147.74034 1801 ft 155 kts 217°
2026-04-25 04:17 64.87371 -147.75558 1611 ft 141 kts 217°
2026-04-25 04:17 64.86628 -147.76933 1424 ft 133 kts 218°
2026-04-25 04:18 64.85899 -147.78275 1272 ft 134 kts 218°
2026-04-25 04:18 64.85162 -147.79622 1096 ft 134 kts 218°
2026-04-25 04:18 64.84417 -147.80974 917 ft 134 kts 218°
2026-04-25 04:18 64.83693 -147.82303 739 ft 135 kts 219°
2026-04-25 04:19 64.82954 -147.83650 557 ft 135 kts 219°
2026-04-25 04:19 64.82231 -147.84976 438 ft 127 kts 219°
2026-04-25 04:19 64.81683 -147.85983 438 ft 70 kts 218°
2026-04-25 04:19 64.81384 -147.86536 438 ft 45 kts 218°
2026-04-25 04:20 64.81181 -147.86912 439 ft 19 kts 221°
2026-04-25 04:20 64.81181 -147.87058 439 ft 9 kts 308°
2026-04-25 04:20 64.81233 -147.87122 439 ft 8 kts 12°
2026-04-25 04:20 64.81282 -147.87044 439 ft 7 kts 40°
2026-04-25 04:21 64.81319 -147.86975 439 ft 6 kts 38°
2026-04-25 04:21 64.81360 -147.86900 439 ft 10 kts 38°
2026-04-25 04:21 64.81434 -147.86766 439 ft 13 kts 37°
2026-04-25 04:21 64.81505 -147.86639 439 ft 12 kts 37°
2026-04-25 04:22 64.81574 -147.86530 439 ft 10 kts 11°
2026-04-25 04:22 64.81622 -147.86585 439 ft 6 kts 353°
2026-04-25 04:22 64.81660 -147.86542 439 ft 5 kts 20°
2026-04-25 04:22 64.81698 -147.86563 439 ft 5 kts 324°
2026-04-25 04:23 64.81722 -147.86601 439 ft 2 kts 327°
2026-04-25 04:23 64.81728 -147.86610 439 ft 0 kts 327°